BRO-6 (52422 NORAD) Tracking and Keplerian Element Data

This shows tracking and keplerian element data for the satellite.

Feedback or suggestion? Click here.




ElementValue
Catalog52422
NameBRO-6
Epoch Orbit811
Epoch Day166.93011978
Epoch Year2022
RAAN251.8311
Inclination97.4521
Eccentricity0.000801
Argument of Perigee182.6905
Mean Anonmoly265.8933
Mean Motion15.12464664
Decay Rate1.834E-05
L11 52422U 22047AE 22166.93011978 .00001834 00000+0 10907-3 0 9990
L22 52422 97.4521 251.8311 0008010 182.6905 265.8933 15.12464664 8111

Live tracking and technical data element details for BRO-6 (NORAD 52422). BRO-6 can be tracked NOW for your location showing map with azimuth and elevation plus other details from your city location.

Track the satellite on the map from your city or location and see movement details for azimuth, elevation, latitude, longitude, range, height, and movement on the map or in text.







IsCatalogInMostPopularTable: catalog: 52422, numindb: 1
Update: records affected: 1



GetName: 52422 BRO-6

Hit Count: updated at: Sat, 25 Jun 2022 04:01:09 GMT